Flag for Germany Weather past 2 weeks in Potsdam, Brandenburg, Germany

Now
65 °F

Scattered clouds.


Feels Like: 65 °F
Forecast: 48 / 70 °F
Wind: 7 mph from West

Location: Potsdam

Current Time: Aug 20, 2014 at 5:22:23 PM

Latest Report: Aug 20, 2014 at 5:00 PM


Visibility: 28 mi

Pressure: 29.95 "Hg

Humidity: 49%

Dew point: 45 °F

Location of PotsdamLocation

Historic Weather in Potsdam — Graph

°F

Potsdam temperature yesterday

Maximum temperature yesterday: 68 °F (at 5:00 PM)
Minimum temperature yesterday: 52 °F (at 11:00 PM)
Average temperature yesterday: 59 °F

Past Weeks' High & Low Weather Summary

 TemperatureHumidityPressure
High83 °F (Aug 10, 5:00 PM)99% (Aug 8, 6:00 AM)30.07 "Hg (Aug 8, 6:00 AM)
Low48 °F (Aug 20, 6:00 AM)37% (Aug 8, 5:00 PM)29.61 "Hg (Aug 18, 3:00 PM)
Average64 °F75%29.86 "Hg
* Reported Aug 5 4:00 PM — Aug 20 4:00 PM, Potsdam, Weather by CustomWeather, © 2014

Note: Actual official high and low records may vary slightly from our data, if they occured in-between our weather recording intervals... More about our weather records

Advertising

Potsdam weather history for previous 24 hours

 ConditionsComfort  
Time TempWeatherWind HumidityBarometerVisibility
4:00 PM
Aug 20
66 °FScattered clouds.7 mph52%29.95 "Hg28 mi
3:00 PM64 °FPartly sunny.6 mph54%29.95 "Hg25 mi
2:00 PM63 °FPartly sunny.7 mph60%29.95 "Hg25 mi
1:00 PM59 °FPartly sunny.7 mph69%29.95 "Hg25 mi
12:00 PM61 °FScattered clouds.8 mph65%29.95 "Hg22 mi
11:00 AM57 °FScattered clouds.7 mph70%29.95 "Hg22 mi
10:00 AM54 °FPartly sunny.7 mph81%29.94 "Hg22 mi
9:00 AM52 °FOvercast.9 mph85%29.93 "Hg22 mi
8:00 AM51 °FOvercast.7 mph90%29.91 "Hg19 mi
7:00 AM48 °FPartly sunny.7 mph94%29.90 "Hg16 mi
6:00 AM48 °FPassing clouds.7 mph94%29.89 "Hg25 mi
5:00 AM49 °FPassing clouds.7 mph94%29.88 "Hg25 mi
4:00 AM50 °FClear.8 mph94%29.87 "Hg25 mi
3:00 AM50 °FPassing clouds.7 mph95%29.87 "Hg25 mi
2:00 AM51 °FClear.7 mph96%29.86 "Hg25 mi
1:00 AM51 °FPassing clouds.7 mph97%29.85 "Hg25 mi
12:00 AM52 °FPassing clouds.7 mph97%29.85 "Hg25 mi
11:00 PM
Aug 19
52 °FOvercast.6 mph97%29.85 "Hg22 mi
10:00 PM52 °FLight rain. Overcast.5 mph95%29.85 "Hg14 mi
9:00 PM53 °FLight rain. Overcast.6 mph95%29.85 "Hg11 mi
8:00 PM57 °FOvercast.8 mph75%29.83 "Hg28 mi
7:00 PM58 °FOvercast.7 mph80%29.80 "Hg25 mi
6:00 PM67 °FOvercast.6 mph50%29.77 "Hg28 mi
5:00 PM68 °FOvercast.7 mph50%29.77 "Hg25 mi
Weather by CustomWeather, © 2014

See weather overviewHow to use our weather pages